Home   Weather   Chelyabinsk   Past weeks

Flag for Russia Past Weather in Chelyabinsk, Russia — Yesterday and Last 2 Weeks

Now
43 °F

Fog.


Feels Like: 43 °F
Forecast: 45 / 53 °F
Wind: 1 mph from Northeast

Location: Chelyabinsk-Balandino

Current Time: Oct 1, 2016 at 8:23:34 AM

Latest Report: Oct 1, 2016 at 8:00 AM


Visibility: 2 mi

Pressure: 30.04 "Hg

Humidity: 100%

Dew Point: 43 °F

Location of ChelyabinskLocation

Past Weather in Chelyabinsk — Graph

°F

Chelyabinsk Temperature Yesterday

Maximum temperature yesterday: 54 °F (at 4:00 PM)
Minimum temperature yesterday: 46 °F (at 12:00 AM)
Average temperature yesterday: 49 °F

High & Low Weather Summary for the Past Weeks

 TemperatureHumidityPressure
High70 °F (Sep 23, 3:30 PM)100% (Sep 16, 7:00 AM)30.36 "Hg (Sep 16, 7:00 AM)
Low34 °F (Sep 20, 6:30 AM)32% (Sep 26, 2:30 PM)29.53 "Hg (Sep 16, 10:30 PM)
Average51 °F78%30.00 "Hg
* Reported Sep 16 7:00 AM — Oct 1 7:00 AM, Chelyabinsk, Weather by CustomWeather, © 2016

Note: Actual official high and low records may vary slightly from our data, if they occured in-between our weather recording intervals... More about our weather records

Advertising

Chelyabinsk Weather History for the Previous 24 Hours

Scroll right to see more
 ConditionsComfort  
Time TempWeatherWind HumidityBarometerVisibility
7:00 AM
Sat, Oct 1
43 °FFog.1 mph100%30.04 "Hg3 mi
6:30 AM43 °FLow clouds.1 mph100%30.04 "Hg4 mi
6:00 AM45 °FLow clouds.3 mph93%30.01 "Hg4 mi
5:30 AM45 °FPassing clouds.3 mph93%30.01 "Hg4 mi
5:00 AM45 °FPassing clouds.3 mph93%30.01 "Hg4 mi
4:30 AM43 °FPassing clouds.3 mph100%30.01 "Hg4 mi
4:00 AM45 °FPassing clouds.3 mph93%30.01 "Hg4 mi
3:30 AM46 °FPassing clouds.1 mph93%30.01 "Hg4 mi
3:00 AM46 °FPassing clouds.3 mph93%30.01 "Hg4 mi
2:30 AM46 °FPassing clouds.3 mph93%30.01 "Hg4 mi
2:00 AM46 °FPassing clouds.3 mph93%30.01 "Hg4 mi
1:30 AM46 °FPassing clouds.3 mph93%30.01 "Hg4 mi
1:00 AM46 °FPassing clouds.3 mph93%30.01 "Hg4 mi
12:30 AM46 °FPassing clouds.3 mph93%30.01 "Hg4 mi
12:00 AM48 °FPassing clouds.3 mph87%30.01 "Hg4 mi
11:30 PM
Fri, Sep 30
48 °FPassing clouds.3 mph94%29.98 "Hg4 mi
11:00 PM48 °FPassing clouds.6 mph94%29.98 "Hg4 mi
10:30 PM48 °FPassing clouds.3 mph94%29.98 "Hg4 mi
10:00 PM48 °FPassing clouds.3 mph94%29.98 "Hg4 mi
9:30 PM48 °FPassing clouds.3 mph94%29.98 "Hg4 mi
9:00 PM48 °FPassing clouds.3 mph94%29.95 "Hg4 mi
8:30 PM48 °FPassing clouds.6 mph94%29.95 "Hg4 mi
8:00 PM48 °FPassing clouds.3 mph94%29.95 "HgN/A
7:30 PM48 °FPartly sunny.3 mph94%29.95 "HgN/A
7:00 PM50 °FPartly sunny.6 mph88%29.95 "HgN/A
6:30 PM50 °FPartly sunny.3 mph88%29.95 "HgN/A
6:00 PM50 °FScattered clouds.3 mph82%29.92 "HgN/A
5:30 PM52 °FScattered clouds.6 mph77%29.92 "HgN/A
5:00 PM52 °FScattered clouds.6 mph77%29.92 "HgN/A
4:30 PM54 °FScattered clouds.6 mph63%29.89 "HgN/A
4:00 PM54 °FScattered clouds.8 mph67%29.89 "HgN/A
3:30 PM52 °FPartly sunny.6 mph77%29.89 "HgN/A
3:00 PM50 °FPartly sunny.3 mph82%29.89 "HgN/A
2:30 PM50 °FPartly sunny.10 mph82%29.89 "HgN/A
2:00 PM50 °FPartly sunny.10 mph82%29.89 "HgN/A
1:30 PM50 °FPartly sunny.10 mph88%29.86 "HgN/A
1:00 PM50 °FPartly sunny.6 mph88%29.86 "HgN/A
12:30 PM50 °FPartly sunny.6 mph88%29.86 "HgN/A
12:00 PM50 °FPartly sunny.6 mph94%29.83 "HgN/A
11:30 AM50 °FPartly sunny.6 mph94%29.83 "Hg4 mi
11:00 AM48 °FDrizzle. Fog.6 mph100%29.83 "Hg2 mi
10:30 AM48 °FFog.6 mph100%29.80 "Hg2 mi
10:00 AM48 °FLight rain. Fog.6 mph100%29.80 "Hg1 mi
9:30 AM48 °FCool.6 mph100%29.80 "Hg1 mi
9:00 AM48 °FCool.6 mph94%29.80 "Hg1 mi
8:30 AM48 °FDrizzle. Fog.6 mph94%29.80 "Hg1 mi
8:00 AM48 °FDrizzle. Fog.6 mph94%29.77 "Hg1 mi
Weather by CustomWeather, © 2016

See weather overviewHow to use our weather pages